Voltar ao catálogo

STARLINK-11673

AtivoComunicaçõesVLEO
NORAD 64318·PAYLOAD·🇺🇸 United States

Lançado Jun 10, 2025 de Cape Canaveral Space Force Station

Loading…

Próximas Passagens (próximas 24 horas)

TLE

AtualizadoSource: CelesTrak SupGP

Época: Sep 14, 2026, 14:50 UTC

1 64318C 25124B   26257.61854167  .00062940  00000+0  48913-3 0  2571
2 64318  43.0002 330.4098 0001657 260.8318 259.5574 15.70793677    17

Acompanhe STARLINK-11673 em tempo real com AllMySat

Download on the App Store